Jaffrey, NH

6:31 PM EDT on October 01, 2016 (GMT -0400)
Jaffrey Airport-Silver Ranch

Weather History for KAFN - December, 2012

Change the Weather History Date:

Sunday, December 16, 2012

  Actual Average Record
Temperature  
Mean Temperature 25 °F -  
Max Temperature 27 °F 34 °F 48 °F (1997)
Min Temperature 23 °F 18 °F 0 °F (2013)
Degree Days  
Heating Degree Days 40    
Moisture  
Dew Point 20 °F    
Average Humidity 83    
Maximum Humidity 93    
Minimum Humidity 64    
Precipitation  
Precipitation 0.10 in - - ()
Sea Level Pressure  
Sea Level Pressure 30.15 in    
Wind  
Wind Speed 2 mph (NNE)    
Max Wind Speed 6 mph    
Max Gust Speed -    
Visibility 3 miles    
Events Fog , Rain , Snow    
Averages and records for this station are not official NWS values.
T = Trace of Precipitation, MM = Missing Value Source: NWS Daily Summary

Daily Weather History Graph

Daily Weather History Graph

Search for Another Location

Airport or City:

Trip Planner

Search our weather history database for the weather conditions in past years. The results will help you decide how hot, cold, wet, or windy it might be!

Date:

Astronomy

Dec. 16, 2012 Rise Set
Actual Time 7:12 AM EST 4:15 PM EST
Civil Twilight 6:40 AM EST 4:47 PM EST
Nautical Twilight 6:04 AM EST 5:23 PM EST
Astronomical Twilight 5:30 AM EST 5:57 PM EST
Moon 9:40 AM EST (12/16) 8:30 PM EST (12/16)
Length of Visible Light 10h 06m
Length of Day
9h 02m
Waxing Crescent, 16% of the Moon is Illuminated
Dec 16
Waxing Crescent
Dec 20
First Quarter
Dec 28
Full
Jan 4
Last Quarter
Jan 11
New

Hourly Weather History & Observations

Time (EST) Temp. Windchill Dew Point Humidity Pressure Visibility Wind Dir Wind Speed Gust Speed Precip Events Conditions
12:52 AM 27.0 °F 23.0 °F 17.1 °F 66% 30.32 in 10.0 mi Variable 3.5 mph - N/A   Overcast
1:52 AM 26.1 °F - 16.0 °F 66% 30.32 in 10.0 mi Calm Calm - N/A   Overcast
2:20 AM 26.6 °F 22.6 °F 15.8 °F 64% 30.26 in 10.0 mi East 3.5 mph - N/A   Overcast
3:52 AM 25.0 °F - 15.1 °F 66% 30.31 in 10.0 mi Calm Calm - N/A   Overcast
4:52 AM 25.0 °F 19.3 °F 15.1 °F 66% 30.30 in 10.0 mi Variable 4.6 mph - N/A   Overcast
6:52 AM 24.1 °F - 15.1 °F 69% 30.30 in 10.0 mi Calm Calm - N/A   Overcast
7:52 AM 24.1 °F 19.7 °F 15.1 °F 69% 30.30 in 10.0 mi Variable 3.5 mph - N/A   Overcast
8:52 AM 24.1 °F 19.7 °F 15.1 °F 69% 30.31 in 10.0 mi Variable 3.5 mph - N/A   Overcast
9:52 AM 24.1 °F 19.7 °F 16.0 °F 71% 30.30 in 10.0 mi Variable 3.5 mph - N/A   Overcast
10:25 AM 24.8 °F 20.5 °F 17.6 °F 74% 30.23 in 10.0 mi Variable 3.5 mph - N/A   Overcast
10:52 AM 25.0 °F - 17.1 °F 72% 30.28 in 10.0 mi Calm Calm - N/A   Overcast
11:52 AM 25.0 °F - 19.0 °F 78% 30.25 in 2.0 mi Calm Calm - 0.00 in Snow Light Snow
11:59 AM 24.8 °F - 19.4 °F 80% 30.19 in 1.2 mi Calm Calm - 0.00 in Snow Light Snow
12:08 PM 24.8 °F - 19.4 °F 80% 30.18 in 0.8 mi Calm Calm - 0.00 in Snow Light Snow
12:24 PM 24.8 °F - 21.2 °F 86% 30.17 in 0.5 mi Calm Calm - 0.01 in Fog , Snow Light Snow
12:44 PM 24.8 °F - 21.2 °F 86% 30.17 in 1.2 mi Calm Calm - 0.03 in Snow Light Snow
12:52 PM 25.0 °F - 21.0 °F 85% 30.23 in 1.8 mi Calm Calm - 0.03 in Snow Light Snow
12:59 PM 24.8 °F - 21.2 °F 86% 30.16 in 2.5 mi Calm Calm - 0.00 in   Overcast
1:02 PM 24.8 °F 20.5 °F 21.2 °F 86% 30.16 in 3.0 mi Variable 3.5 mph - 0.00 in   Overcast
1:26 PM 24.8 °F - 19.4 °F 80% 30.15 in 5.0 mi Calm Calm - 0.00 in   Overcast
1:52 PM 24.1 °F - 19.9 °F 84% 30.21 in 4.0 mi Calm Calm - 0.00 in   Overcast
2:03 PM 24.8 °F - 21.2 °F 86% 30.14 in 2.5 mi Calm Calm - 0.00 in   Overcast
2:22 PM 24.8 °F - 21.2 °F 86% 30.14 in 1.8 mi Calm Calm - 0.00 in Rain Light Freezing Rain
2:52 PM 24.1 °F 19.7 °F 21.0 °F 88% 30.19 in 1.5 mi North 3.5 mph - 0.00 in   Overcast
3:02 PM 24.8 °F - 21.2 °F 86% 30.13 in 1.2 mi Calm Calm - 0.01 in Snow Light Snow
3:09 PM 24.8 °F - 21.2 °F 86% 30.13 in 1.2 mi Calm Calm - 0.01 in Snow Light Snow
3:16 PM 24.8 °F - 21.2 °F 86% 30.13 in 1.0 mi Calm Calm - 0.01 in Snow Light Snow
3:42 PM 24.8 °F - 21.2 °F 86% 30.12 in 1.0 mi Calm Calm - 0.01 in Snow Light Snow
3:52 PM 24.1 °F 19.7 °F 21.0 °F 88% 30.18 in 1.0 mi North 3.5 mph - 0.01 in Snow Light Snow
4:03 PM 24.8 °F 20.5 °F 21.2 °F 86% 30.12 in 1.5 mi Variable 3.5 mph - 0.00 in Snow Light Snow
4:23 PM 24.8 °F 20.5 °F 21.2 °F 86% 30.11 in 1.2 mi NNE 3.5 mph - 0.00 in Snow Light Snow
4:37 PM 24.8 °F 20.5 °F 21.2 °F 86% 30.11 in 1.5 mi North 3.5 mph - 0.00 in Snow Light Snow
4:52 PM 24.1 °F - 21.0 °F 88% 30.17 in 1.5 mi Calm Calm - 0.00 in Snow Light Snow
5:07 PM 24.8 °F - 21.2 °F 86% 30.11 in 2.0 mi Calm Calm - 0.00 in Snow Light Snow
5:19 PM 24.8 °F - 21.2 °F 86% 30.11 in 1.8 mi Calm Calm - 0.01 in Snow Light Snow
5:52 PM 23.0 °F 18.4 °F 19.9 °F 88% 30.17 in 1.5 mi Variable 3.5 mph - 0.01 in Snow Light Snow
5:59 PM 23.0 °F 18.4 °F 19.4 °F 86% 30.11 in 1.0 mi NNE 3.5 mph - 0.00 in Snow Light Snow
6:12 PM 23.0 °F 17.0 °F 19.4 °F 86% 30.11 in 1.5 mi NNE 4.6 mph - 0.00 in Snow Light Snow
6:23 PM 23.0 °F - 19.4 °F 86% 30.10 in 2.0 mi Calm Calm - 0.00 in Rain Light Freezing Rain
6:52 PM 23.0 °F 17.0 °F 19.9 °F 88% 30.16 in 2.5 mi Variable 4.6 mph - 0.00 in   Overcast
7:04 PM 23.0 °F - 19.4 °F 86% 30.10 in 3.0 mi Calm Calm - N/A   Overcast
7:13 PM 23.0 °F - 19.4 °F 86% 30.10 in 2.5 mi Calm Calm - N/A   Overcast
7:32 PM 23.0 °F 18.4 °F 19.4 °F 86% 30.09 in 1.8 mi NNE 3.5 mph - 0.00 in Snow Light Snow
7:42 PM 23.0 °F - 19.4 °F 86% 30.09 in 2.5 mi Calm Calm - 0.00 in   Overcast
7:52 PM 23.0 °F 17.0 °F 19.9 °F 88% 30.15 in 2.0 mi North 4.6 mph - 0.00 in   Overcast
8:03 PM 23.0 °F - 19.4 °F 86% 30.08 in 1.5 mi Calm Calm - 0.00 in Snow Light Snow
8:20 PM 23.0 °F - 21.2 °F 93% 30.08 in 2.0 mi Calm Calm - 0.01 in   Overcast
8:31 PM 23.0 °F 17.0 °F 21.2 °F 93% 30.07 in 2.5 mi NNE 4.6 mph - 0.01 in Rain Light Freezing Rain
8:49 PM 23.0 °F - 21.2 °F 93% 30.07 in 2.5 mi Calm Calm - 0.01 in Rain Light Freezing Rain
8:52 PM 24.1 °F 19.7 °F 21.0 °F 88% 30.13 in 2.0 mi NNE 3.5 mph - 0.01 in Rain Light Freezing Rain
8:55 PM 24.8 °F - 21.2 °F 86% 30.07 in 1.8 mi Calm Calm - 0.00 in Snow Light Snow
9:08 PM 24.8 °F 20.5 °F 21.2 °F 86% 30.07 in 2.0 mi Variable 3.5 mph - 0.01 in   Overcast
9:18 PM 24.8 °F 20.5 °F 21.2 °F 86% 30.07 in 2.5 mi Variable 3.5 mph - 0.01 in Rain Light Freezing Rain
9:25 PM 24.8 °F 20.5 °F 21.2 °F 86% 30.08 in 2.0 mi NNE 3.5 mph - 0.01 in Snow Light Snow
9:33 PM 24.8 °F - 21.2 °F 86% 30.08 in 1.8 mi Calm Calm - 0.01 in Snow Light Snow
9:43 PM 24.8 °F - 21.2 °F 86% 30.08 in 1.2 mi Calm Calm - 0.02 in Rain Light Freezing Rain
9:52 PM 24.1 °F - 21.9 °F 91% 30.14 in 1.5 mi Calm Calm - 0.03 in Snow Light Snow
10:02 PM 24.8 °F 20.5 °F 21.2 °F 86% 30.07 in 2.0 mi Variable 3.5 mph - 0.00 in Snow Light Snow
10:15 PM 24.8 °F 20.5 °F 21.2 °F 86% 30.07 in 1.2 mi Variable 3.5 mph - 0.00 in Snow Light Snow
10:44 PM 24.8 °F 20.5 °F 21.2 °F 86% 30.07 in 1.0 mi Variable 3.5 mph - 0.01 in Snow Light Snow
10:52 PM 24.1 °F 19.7 °F 21.9 °F 91% 30.13 in 1.2 mi Variable 3.5 mph - 0.01 in Snow Light Snow
11:05 PM 24.8 °F 19.1 °F 21.2 °F 86% 30.06 in 1.8 mi Variable 4.6 mph - 0.00 in Snow Light Snow
11:13 PM 24.8 °F 20.5 °F 21.2 °F 86% 30.07 in 2.5 mi North 3.5 mph - 0.00 in   Overcast
11:16 PM 24.8 °F 20.5 °F 21.2 °F 86% 30.07 in 3.0 mi Variable 3.5 mph - 0.00 in Rain Light Freezing Rain
11:37 PM 24.8 °F 17.9 °F 21.2 °F 86% 30.06 in 2.5 mi North 5.8 mph - 0.00 in Rain Light Freezing Rain
11:52 PM 24.1 °F 19.7 °F 21.0 °F 88% 30.11 in 2.5 mi Variable 3.5 mph - 0.00 in Rain Light Freezing Rain